Time,TemperatureF,DewpointF,PressureIn,WindDirection,WindDirectionDegrees,WindSpeedMPH,WindSpeedGustMPH,Humidity,HourlyPrecipIn,Conditions,Clouds,dailyrainin,SoftwareType,DateUTC
2013-03-02 00:00:00,48.7,45.3,30.16,West,270,1.7,-999.0,88,-99.99,,,0.00,Acu-Link.com,2013-03-02 08:00:00,
2013-03-02 00:16:00,48.7,45.6,30.15,NNW,337,2.2,-999.0,89,-99.99,,,0.00,Acu-Link.com,2013-03-02 08:16:00,
2013-03-02 00:31:00,49.1,46.0,30.16,West,270,0.0,-999.0,89,-99.99,,,0.00,Acu-Link.com,2013-03-02 08:31:00,
2013-03-02 00:46:00,49.5,46.4,30.15,West,270,1.1,-999.0,89,-99.99,,,0.00,Acu-Link.com,2013-03-02 08:46:00,
2013-03-02 01:01:00,49.3,45.9,30.14,West,270,0.0,-999.0,88,-99.99,,,0.00,Acu-Link.com,2013-03-02 09:01:00,
2013-03-02 01:18:00,49.3,45.9,30.14,West,270,0.0,-999.0,88,-99.99,,,0.00,Acu-Link.com,2013-03-02 09:18:00,
2013-03-02 01:34:00,49.5,46.1,30.14,West,270,0.0,-999.0,88,-99.99,,,0.00,Acu-Link.com,2013-03-02 09:34:00,
2013-03-02 01:49:00,49.5,46.1,30.14,WNW,292,0.0,-999.0,88,-99.99,,,0.00,Acu-Link.com,2013-03-02 09:49:00,
2013-03-02 02:04:00,49.5,46.1,30.13,SW,225,2.2,-999.0,88,-99.99,,,0.00,Acu-Link.com,2013-03-02 10:04:00,
2013-03-02 02:19:00,48.9,45.5,30.13,WSW,247,1.7,-999.0,88,-99.99,,,0.00,Acu-Link.com,2013-03-02 10:19:00,
2013-03-02 02:34:00,48.7,45.6,30.12,NNW,337,0.0,-999.0,89,-99.99,,,0.00,Acu-Link.com,2013-03-02 10:34:00,
2013-03-02 02:49:00,48.6,45.5,30.11,West,270,1.7,-999.0,89,-99.99,,,0.00,Acu-Link.com,2013-03-02 10:49:00,
2013-03-02 03:04:00,48.6,45.5,30.11,NW,315,0.0,-999.0,89,-99.99,,,0.00,Acu-Link.com,2013-03-02 11:04:00,
2013-03-02 03:19:00,48.6,45.8,30.10,NW,315,0.0,-999.0,90,-99.99,,,0.00,Acu-Link.com,2013-03-02 11:19:00,
2013-03-02 03:34:00,48.4,45.6,30.10,NNW,337,0.0,-999.0,90,-99.99,,,0.00,Acu-Link.com,2013-03-02 11:34:00,
2013-03-02 03:49:00,48.4,45.9,30.10,West,270,0.0,-999.0,91,-99.99,,,0.00,Acu-Link.com,2013-03-02 11:49:00,
2013-03-02 04:05:00,48.2,45.7,30.10,WNW,292,0.0,-999.0,91,-99.99,,,0.00,Acu-Link.com,2013-03-02 12:05:00,
2013-03-02 04:20:00,48.0,45.5,30.10,West,270,0.0,-999.0,91,-99.99,,,0.00,Acu-Link.com,2013-03-02 12:20:00,
2013-03-02 04:35:00,47.8,45.3,30.10,SW,225,0.0,-999.0,91,-99.99,,,0.00,Acu-Link.com,2013-03-02 12:35:00,
2013-03-02 04:50:00,47.8,45.3,30.10,SW,225,0.0,-999.0,91,-99.99,,,0.00,Acu-Link.com,2013-03-02 12:50:00,
2013-03-02 05:05:00,47.8,45.3,30.10,WSW,247,0.0,-999.0,91,-99.99,,,0.00,Acu-Link.com,2013-03-02 13:05:00,
2013-03-02 05:20:00,47.8,45.3,30.10,West,270,0.0,-999.0,91,-99.99,,,0.00,Acu-Link.com,2013-03-02 13:20:00,
2013-03-02 05:35:00,47.7,45.5,30.10,West,270,0.0,-999.0,92,-99.99,,,0.00,Acu-Link.com,2013-03-02 13:35:00,
2013-03-02 05:50:00,47.5,45.3,30.10,WNW,292,0.0,-999.0,92,-99.99,,,0.00,Acu-Link.com,2013-03-02 13:50:00,
2013-03-02 06:05:00,47.5,45.3,30.10,West,270,0.0,-999.0,92,-99.99,,,0.00,Acu-Link.com,2013-03-02 14:05:00,
2013-03-02 06:21:00,47.5,45.6,30.10,NW,315,0.0,-999.0,93,-99.99,,,0.00,Acu-Link.com,2013-03-02 14:21:00,
2013-03-02 06:36:00,47.8,45.9,30.10,SW,225,0.0,-999.0,93,-99.99,,,0.00,Acu-Link.com,2013-03-02 14:36:00,
2013-03-02 06:51:00,47.7,45.8,30.10,WSW,247,0.0,-999.0,93,-99.99,,,0.00,Acu-Link.com,2013-03-02 14:51:00,
2013-03-02 07:06:00,47.7,45.8,30.10,WSW,247,0.0,-999.0,93,-99.99,,,0.00,Acu-Link.com,2013-03-02 15:06:00,
2013-03-02 07:21:00,47.8,45.9,30.10,WSW,247,0.0,-999.0,93,-99.99,,,0.00,Acu-Link.com,2013-03-02 15:21:00,
2013-03-02 07:36:00,48.9,47.0,30.11,SW,225,0.0,-999.0,93,-99.99,,,0.00,Acu-Link.com,2013-03-02 15:36:00,
2013-03-02 07:51:00,50.7,48.8,30.11,SW,225,0.0,-999.0,93,-99.99,,,0.00,Acu-Link.com,2013-03-02 15:51:00,
2013-03-02 08:06:00,55.0,51.2,30.12,ENE,67,0.0,-999.0,87,-99.99,,,0.00,Acu-Link.com,2013-03-02 16:06:00,
2013-03-02 08:21:00,56.5,51.7,30.11,SE,135,0.0,-999.0,84,-99.99,,,0.00,Acu-Link.com,2013-03-02 16:21:00,
2013-03-02 08:37:00,57.0,51.2,30.11,ESE,112,0.0,-999.0,81,-99.99,,,0.00,Acu-Link.com,2013-03-02 16:37:00,
2013-03-02 08:52:00,57.4,50.9,30.12,ESE,112,2.7,-999.0,79,-99.99,,,0.00,Acu-Link.com,2013-03-02 16:52:00,
2013-03-02 09:07:00,59.0,51.4,30.11,ESE,112,2.7,-999.0,76,-99.99,,,0.00,Acu-Link.com,2013-03-02 17:07:00,
2013-03-02 09:22:00,60.4,52.8,30.11,ESE,112,2.7,-999.0,76,-99.99,,,0.00,Acu-Link.com,2013-03-02 17:22:00,
2013-03-02 09:37:00,61.5,52.8,30.11,West,270,1.7,-999.0,73,-99.99,,,0.00,Acu-Link.com,2013-03-02 17:37:00,
2013-03-02 09:52:00,63.7,53.7,30.10,SSW,202,2.2,-999.0,70,-99.99,,,0.00,Acu-Link.com,2013-03-02 17:52:00,
2013-03-02 10:07:00,63.9,53.9,30.10,SE,135,2.2,-999.0,70,-99.99,,,0.00,Acu-Link.com,2013-03-02 18:07:00,
2013-03-02 10:22:00,66.0,53.5,30.10,SE,135,2.2,-999.0,64,-99.99,,,0.00,Acu-Link.com,2013-03-02 18:22:00,
2013-03-02 10:37:00,66.2,54.1,30.10,NNE,22,1.1,-999.0,65,-99.99,,,0.00,Acu-Link.com,2013-03-02 18:37:00,
2013-03-02 10:53:00,67.3,54.7,30.08,SSW,202,1.1,-999.0,64,-99.99,,,0.00,Acu-Link.com,2013-03-02 18:53:00,
2013-03-02 11:08:00,69.6,55.5,30.08,SE,135,1.7,-999.0,61,-99.99,,,0.00,Acu-Link.com,2013-03-02 19:08:00,
2013-03-02 11:23:00,68.7,54.2,30.09,SSE,157,2.7,-999.0,60,-99.99,,,0.00,Acu-Link.com,2013-03-02 19:23:00,
2013-03-02 11:38:00,69.8,54.8,30.08,NNE,22,1.7,-999.0,59,-99.99,,,0.00,Acu-Link.com,2013-03-02 19:38:00,
2013-03-02 11:53:00,71.2,54.7,30.07,ESE,112,3.7,-999.0,56,-99.99,,,0.00,Acu-Link.com,2013-03-02 19:53:00,
2013-03-02 12:08:00,69.6,54.2,30.06,ESE,112,2.2,-999.0,58,-99.99,,,0.00,Acu-Link.com,2013-03-02 20:08:00,
2013-03-02 12:23:00,70.7,55.2,30.06,NW,315,2.2,-999.0,58,-99.99,,,0.00,Acu-Link.com,2013-03-02 20:23:00,
2013-03-02 12:38:00,70.7,55.2,30.05,SE,135,3.2,-999.0,58,-99.99,,,0.00,Acu-Link.com,2013-03-02 20:38:00,
2013-03-02 12:53:00,70.5,55.0,30.04,ENE,67,1.7,-999.0,58,-99.99,,,0.00,Acu-Link.com,2013-03-02 20:53:00,
2013-03-02 13:09:00,69.8,55.3,30.04,ESE,112,1.7,-999.0,60,-99.99,,,0.00,Acu-Link.com,2013-03-02 21:09:00,
2013-03-02 13:24:00,69.8,55.3,30.03,SE,135,4.2,-999.0,60,-99.99,,,0.00,Acu-Link.com,2013-03-02 21:24:00,
2013-03-02 13:39:00,70.5,55.9,30.01,NNE,22,2.2,-999.0,60,-99.99,,,0.00,Acu-Link.com,2013-03-02 21:39:00,
2013-03-02 13:54:00,71.2,55.7,30.01,NNW,337,3.2,-999.0,58,-99.99,,,0.00,Acu-Link.com,2013-03-02 21:54:00,
2013-03-02 14:09:00,71.6,55.5,30.01,NNW,337,1.7,-999.0,57,-99.99,,,0.00,Acu-Link.com,2013-03-02 22:09:00,
2013-03-02 14:24:00,71.4,55.4,30.00,NNE,22,3.2,-999.0,57,-99.99,,,0.00,Acu-Link.com,2013-03-02 22:24:00,
2013-03-02 14:39:00,69.8,54.3,29.99,SE,135,1.1,-999.0,58,-99.99,,,0.00,Acu-Link.com,2013-03-02 22:39:00,
2013-03-02 14:54:00,70.0,54.5,29.99,ENE,67,1.1,-999.0,58,-99.99,,,0.00,Acu-Link.com,2013-03-02 22:54:00,
2013-03-02 15:09:00,69.4,53.0,29.99,NE,45,1.7,-999.0,56,-99.99,,,0.00,Acu-Link.com,2013-03-02 23:09:00,
2013-03-02 15:24:00,71.6,54.1,29.99,NNE,22,1.7,-999.0,54,-99.99,,,0.00,Acu-Link.com,2013-03-02 23:24:00,
2013-03-02 15:40:00,70.3,53.9,29.98,ESE,112,1.1,-999.0,56,-99.99,,,0.00,Acu-Link.com,2013-03-02 23:40:00,
2013-03-02 15:55:00,69.8,53.9,29.99,NE,45,1.7,-999.0,57,-99.99,,,0.00,Acu-Link.com,2013-03-02 23:55:00,
2013-03-02 16:10:00,69.4,53.5,29.98,WSW,247,2.2,-999.0,57,-99.99,,,0.00,Acu-Link.com,2013-03-03 00:10:00,
2013-03-02 16:25:00,69.4,53.0,29.97,NNE,22,1.1,-999.0,56,-99.99,,,0.00,Acu-Link.com,2013-03-03 00:25:00,
2013-03-02 16:40:00,67.3,51.5,29.97,SSW,202,3.7,-999.0,57,-99.99,,,0.00,Acu-Link.com,2013-03-03 00:40:00,
2013-03-02 16:55:00,66.7,51.4,29.97,WSW,247,0.0,-999.0,58,-99.99,,,0.00,Acu-Link.com,2013-03-03 00:55:00,
2013-03-02 17:10:00,65.7,51.4,29.97,WSW,247,0.0,-999.0,60,-99.99,,,0.00,Acu-Link.com,2013-03-03 01:10:00,
2013-03-02 17:25:00,65.3,51.9,29.98,West,270,0.0,-999.0,62,-99.99,,,0.00,Acu-Link.com,2013-03-03 01:25:00,
2013-03-02 17:40:00,64.4,51.1,29.98,ENE,67,1.7,-999.0,62,-99.99,,,0.00,Acu-Link.com,2013-03-03 01:40:00,
2013-03-02 17:56:00,63.3,51.7,29.98,WNW,292,1.7,-999.0,66,-99.99,,,0.00,Acu-Link.com,2013-03-03 01:56:00,
2013-03-02 18:11:00,62.4,50.9,29.98,West,270,0.0,-999.0,66,-99.99,,,0.00,Acu-Link.com,2013-03-03 02:11:00,
2013-03-02 18:26:00,61.3,49.4,29.99,SSW,202,2.2,-999.0,65,-99.99,,,0.00,Acu-Link.com,2013-03-03 02:26:00,
2013-03-02 18:41:00,60.1,48.7,29.99,East,90,0.0,-999.0,66,-99.99,,,0.00,Acu-Link.com,2013-03-03 02:41:00,
2013-03-02 18:56:00,59.7,48.7,29.99,West,270,1.7,-999.0,67,-99.99,,,0.00,Acu-Link.com,2013-03-03 02:56:00,
2013-03-02 19:11:00,59.7,48.7,30.01,WNW,292,0.0,-999.0,67,-99.99,,,0.00,Acu-Link.com,2013-03-03 03:11:00,
2013-03-02 19:26:00,59.7,49.9,30.00,ESE,112,3.2,-999.0,70,-99.99,,,0.00,Acu-Link.com,2013-03-03 03:26:00,
2013-03-02 19:41:00,59.4,50.0,30.00,SW,225,2.7,-999.0,71,-99.99,,,0.00,Acu-Link.com,2013-03-03 03:41:00,
2013-03-02 19:56:00,58.8,50.2,30.01,ESE,112,2.2,-999.0,73,-99.99,,,0.00,Acu-Link.com,2013-03-03 03:56:00,
2013-03-02 20:12:00,58.6,50.7,30.00,SSE,157,2.7,-999.0,75,-99.99,,,0.00,Acu-Link.com,2013-03-03 04:12:00,
2013-03-02 20:27:00,58.3,50.8,30.00,SE,135,2.2,-999.0,76,-99.99,,,0.00,Acu-Link.com,2013-03-03 04:27:00,
2013-03-02 20:42:00,57.7,50.5,29.99,ENE,67,1.7,-999.0,77,-99.99,,,0.00,Acu-Link.com,2013-03-03 04:42:00,
2013-03-02 20:57:00,57.2,50.4,30.00,NNW,337,0.0,-999.0,78,-99.99,,,0.00,Acu-Link.com,2013-03-03 04:57:00,
2013-03-02 21:12:00,56.5,50.1,30.01,West,270,0.0,-999.0,79,-99.99,,,0.00,Acu-Link.com,2013-03-03 05:12:00,
2013-03-02 21:27:00,55.9,50.2,30.01,West,270,0.0,-999.0,81,-99.99,,,0.00,Acu-Link.com,2013-03-03 05:27:00,
2013-03-02 21:42:00,55.4,50.0,30.01,WSW,247,0.0,-999.0,82,-99.99,,,0.00,Acu-Link.com,2013-03-03 05:42:00,
2013-03-02 21:57:00,55.2,49.8,30.00,West,270,0.0,-999.0,82,-99.99,,,0.00,Acu-Link.com,2013-03-03 05:57:00,
2013-03-02 22:12:00,55.0,49.6,30.01,ESE,112,0.0,-999.0,82,-99.99,,,0.00,Acu-Link.com,2013-03-03 06:12:00,
2013-03-02 22:28:00,54.9,49.5,30.01,West,270,0.0,-999.0,82,-99.99,,,0.00,Acu-Link.com,2013-03-03 06:28:00,
2013-03-02 22:43:00,54.7,49.0,30.00,SW,225,0.0,-999.0,81,-99.99,,,0.00,Acu-Link.com,2013-03-03 06:43:00,
2013-03-02 22:58:00,54.5,48.8,30.01,NNW,337,0.0,-999.0,81,-99.99,,,0.00,Acu-Link.com,2013-03-03 06:58:00,
2013-03-02 23:13:00,54.1,48.4,30.01,SSW,202,1.1,-999.0,81,-99.99,,,0.00,Acu-Link.com,2013-03-03 07:13:00,
2013-03-02 23:28:00,54.1,48.4,30.00,NNE,22,0.0,-999.0,81,-99.99,,,0.00,Acu-Link.com,2013-03-03 07:28:00,
2013-03-02 23:43:00,54.0,48.6,30.00,North,0,2.2,-999.0,82,-99.99,,,0.00,Acu-Link.com,2013-03-03 07:43:00,
2013-03-02 23:58:00,53.6,48.2,30.01,NNW,337,0.0,-999.0,82,-99.99,,,0.00,Acu-Link.com,2013-03-03 07:58:00,